Location: Unspecified
(44.4377°N, 88.0525°W)
Time: 01:26:13
(UTC-05:00)

Resurs 1-4 Rocket - Visible Passes

Search period start: 23 March 2017 00:00
Search period end: 02 April 2017 00:00
Orbit: 800 x 814 km, 98.5° (Epoch: 21 March)

Date Brightness Start Highest point End Pass type
(mag) Time Alt. Az. Time Alt. Az. Time Alt. Az.
23 Mar 4.2 02:38:57 10° NNE 02:41:19 23° NE 02:41:19 23° NE visible
23 Mar 3.1 04:18:44 10° N 04:22:24 32° NW 04:22:24 32° NW visible
24 Mar 4.6 02:15:04 10° NE 02:16:34 15° ENE 02:16:34 15° ENE visible
24 Mar 2.9 03:53:55 10° N 03:57:39 42° NNW 03:57:39 42° NNW visible
25 Mar 2.9 03:29:16 10° NNE 03:32:56 46° NNE 03:32:56 46° NNE visible
25 Mar 3.9 05:10:58 10° NNW 05:13:39 14° WNW 05:14:01 14° WNW visible
26 Mar 3.4 03:04:47 10° NNE 03:08:12 37° NE 03:08:12 37° NE visible
26 Mar 3.5 04:45:28 10° NNW 04:49:17 22° WNW 04:49:17 22° WNW visible
27 Mar 3.9 02:40:32 10° NNE 02:43:27 26° ENE 02:43:27 26° ENE visible
27 Mar 3.0 04:20:24 10° N 04:24:33 33° NW 04:24:33 33° NW visible
28 Mar 4.4 02:16:37 10° NE 02:18:43 18° ENE 02:18:43 18° ENE visible
28 Mar 2.6 03:55:33 10° N 03:59:48 48° NW 03:59:48 48° NW visible
29 Mar 4.8 01:53:33 10° ENE 01:53:58 11° ENE 01:53:58 11° ENE visible
29 Mar 2.5 03:30:53 10° NNE 03:35:04 57° N 03:35:04 57° N visible
29 Mar 3.9 05:12:42 10° NNW 05:15:14 14° WNW 05:16:09 13° WNW visible
30 Mar 3.0 03:06:24 10° NNE 03:10:19 45° NE 03:10:19 45° NE visible
30 Mar 3.5 04:47:08 10° NNW 04:51:01 21° WNW 04:51:25 21° WNW visible
31 Mar 3.7 02:42:07 10° NNE 02:45:35 30° ENE 02:45:35 30° ENE visible
31 Mar 2.9 04:22:03 10° N 04:26:40 33° WNW 04:26:40 33° WNW visible
01 Apr 4.2 02:18:10 10° NE 02:20:51 20° ENE 02:20:51 20° ENE visible
01 Apr 2.4 03:57:11 10° N 04:01:56 51° NW 04:01:56 51° NW visible
